This is the latest recevied weather packets stored in our database for station/object SV9FBP. If no packets are shown the sender has not sent any weather packets the latest 10 day(s).
| Time | Temp. | Humidity | Pressure | Rain* | Wind** | Luminosity | Snow |
|---|---|---|---|---|---|---|---|
| 1777480257 | 21.11° C | 67% | 1013.4 hPa | 0 mm | - | - | - |
| 1777479355 | 21.11° C | 66% | 1013.4 hPa | 0 mm | - | - | - |
| 1777478453 | 21.11° C | 65% | 1013.6 hPa | 0 mm | - | - | - |
| 1777477551 | 21.11° C | 64% | 1013.5 hPa | 0 mm | - | - | - |
| 1777476649 | 21.67° C | 62% | 1013.7 hPa | 0 mm | - | - | - |
| 1777475747 | 21.67° C | 60% | 1013.8 hPa | 0 mm | - | - | - |
| 1777474844 | 22.22° C | 60% | 1013.6 hPa | 0 mm | - | - | - |
| 1777473942 | 22.22° C | 56% | 1013.7 hPa | 0 mm | - | - | - |
| 1777473040 | 22.78° C | 54% | 1013.6 hPa | 0 mm | - | - | - |
| 1777472138 | 24.44° C | 48% | 1013.7 hPa | 0 mm | - | - | - |
| 1777471236 | 24.44° C | 30% | 1013.8 hPa | 0 mm | - | - | - |
| 1777470333 | 24.44° C | 33% | 1013.8 hPa | 0 mm | - | - | - |
| 1777469432 | 24.44° C | 46% | 1013.7 hPa | 0 mm | - | - | - |
| 1777468530 | 25° C | 44% | 1014 hPa | 0 mm | - | - | - |
| 1777467627 | 25.56° C | 42% | 1013.8 hPa | 0 mm | - | - | - |
| 1777466741 | 26.11° C | 42% | 1013.7 hPa | 0 mm | - | - | - |
| 1777465823 | 26.67° C | 35% | 1014.2 hPa | 0 mm | - | - | - |
| 1777464920 | 26.67° C | 24% | 1013.9 hPa | 0 mm | - | - | - |
| 1777464018 | 26.67° C | 24% | 1013.9 hPa | 0 mm | - | - | - |
| 1777463117 | 26.67° C | 24% | 1013.8 hPa | 0 mm | - | - | - |
| 1777462214 | 26.11° C | 22% | 1013.6 hPa | 0 mm | - | - | - |
| 1777461312 | 26.11° C | 26% | 1013.6 hPa | 0 mm | - | - | - |
| 1777460410 | 25.56° C | 29% | 1013.7 hPa | 0 mm | - | - | - |
| 1777459507 | 25.56° C | 30% | 1013.7 hPa | 0 mm | - | - | - |
| 1777458606 | 25.56° C | 31% | 1014.2 hPa | 0 mm | - | - | - |
* Rain latest hour (hover to see other rain measurements)
** Current wind speed in m/s (hover to see current wind gust speed)